Weather History for Danbury, CT

Change the Weather History Date:

Monday, March 25, 2013

  Actual Average Record
Temperature  
Mean Temperature 38 °F -  
Max Temperature 44 °F 49 °F 76 °F (1963)
Min Temperature 33 °F 27 °F 12 °F (1956)
Degree Days  
Heating Degree Days 26    
Moisture  
Dew Point 23 °F    
Average Humidity 55    
Maximum Humidity 73    
Minimum Humidity 43    
Precipitation  
Precipitation 0.00 in - - ()
Sea Level Pressure  
Sea Level Pressure 29.59 in    
Wind  
Wind Speed 8 mph (NE)    
Max Wind Speed 15 mph    
Max Gust Speed 22 mph    
Visibility 10 miles    
Events      
Averages and records for this station are not official NWS values.
T = Trace of Precipitation, MM = Missing Value Source: NWS Daily Summary

Daily Weather History Graph

Daily Weather History Graph

Search for Another Location

Airport:

Trip Planner

Search our weather history database for the weather conditions in past years. The results will help you decide how hot, cold, wet, or windy it might be!

Date:

Astronomy

Mar. 25, 2013 Rise Set
Actual Time 6:48 AM EDT 7:11 PM EDT
Civil Twilight 6:20 AM EDT 7:39 PM EDT
Nautical Twilight 5:48 AM EDT 8:12 PM EDT
Astronomical Twilight 5:14 AM EDT 8:45 PM EDT
Moon 5:39 PM EDT 5:31 AM EDT
Length of Visible Light 13h 18m
Length of Day
12h 23m
Waxing Gibbous, 96% of the Moon is Illuminated
Mar 25
Waxing Gibbous
Mar 27
Full
Apr 3
Last Quarter
Apr 10
New
Apr 18
First Quarter

Hourly Weather History & Observations

Time (EDT) Temp. Windchill Dew Point Humidity Pressure Visibility Wind Dir Wind Speed Gust Speed Precip Events Conditions
12:53 AM 37.0 °F 30.4 °F 21.9 °F 54% 29.71 in 10.0 mi ENE 9.2 mph - N/A   Clear
1:53 AM 36.0 °F 30.3 °F 25.0 °F 64% 29.72 in 10.0 mi East 6.9 mph - N/A   Clear
2:53 AM 35.1 °F - 26.1 °F 70% 29.70 in 10.0 mi Calm Calm - N/A   Clear
3:53 AM 34.0 °F 29.8 °F 26.1 °F 73% 29.68 in 10.0 mi ENE 4.6 mph - N/A   Clear
4:53 AM 34.0 °F 28.8 °F 25.0 °F 70% 29.66 in 10.0 mi NE 5.8 mph - N/A   Clear
5:53 AM 33.1 °F 27.7 °F 23.0 °F 66% 29.65 in 10.0 mi ENE 5.8 mph - N/A   Partly Cloudy
6:53 AM 33.1 °F 26.9 °F 21.9 °F 64% 29.66 in 10.0 mi ENE 6.9 mph - N/A   Mostly Cloudy
7:53 AM 34.0 °F 28.0 °F 21.9 °F 61% 29.65 in 10.0 mi NE 6.9 mph - N/A   Scattered Clouds
8:53 AM 35.1 °F 28.6 °F 21.9 °F 59% 29.63 in 10.0 mi NE 8.1 mph - N/A   Overcast
9:53 AM 37.9 °F 31.5 °F 23.0 °F 55% 29.64 in 10.0 mi East 9.2 mph - N/A   Overcast
10:53 AM 41.0 °F 33.1 °F 24.1 °F 51% 29.61 in 10.0 mi East 15.0 mph 18.4 mph N/A   Overcast
11:53 AM 41.0 °F 35.2 °F 23.0 °F 49% 29.58 in 10.0 mi East 9.2 mph - N/A   Overcast
12:53 PM 42.1 °F 36.1 °F 23.0 °F 47% 29.55 in 10.0 mi East 10.4 mph - N/A   Overcast
1:53 PM 43.0 °F 36.8 °F 23.0 °F 45% 29.51 in 10.0 mi NE 11.5 mph 20.7 mph N/A   Overcast
2:53 PM 44.1 °F 37.4 °F 23.0 °F 43% 29.46 in 10.0 mi NE 13.8 mph 21.9 mph N/A   Overcast
3:53 PM 42.1 °F 36.1 °F 24.1 °F 49% 29.47 in 10.0 mi NE 10.4 mph 20.7 mph N/A   Overcast
4:53 PM 42.1 °F 34.9 °F 25.0 °F 51% 29.47 in 10.0 mi ENE 13.8 mph - N/A   Overcast
5:53 PM 41.0 °F 35.2 °F 25.0 °F 53% 29.48 in 10.0 mi NNE 9.2 mph 18.4 mph N/A   Overcast
6:53 PM 41.0 °F 37.1 °F 24.1 °F 51% 29.50 in 10.0 mi NE 5.8 mph 18.4 mph N/A   Overcast
7:53 PM 39.9 °F 33.9 °F 23.0 °F 51% 29.53 in 10.0 mi NNE 9.2 mph - N/A   Overcast
8:53 PM 39.9 °F 33.9 °F 21.9 °F 49% 29.55 in 10.0 mi NNE 9.2 mph 18.4 mph N/A   Overcast
9:53 PM 39.9 °F 31.8 °F 21.9 °F 49% 29.56 in 10.0 mi NNE 15.0 mph 19.6 mph N/A   Overcast
10:53 PM 39.0 °F 33.4 °F 21.9 °F 50% 29.57 in 10.0 mi NNE 8.1 mph - N/A   Partly Cloudy
11:53 PM 39.0 °F 32.8 °F 23.0 °F 53% 29.58 in 10.0 mi NNE 9.2 mph - N/A   Mostly Cloudy